Location: Fort Wayne
(41.1310°N, 85.1290°W)
Time: 04:48:25
(UTC-04:00)

Cosmos 1953 - Visible Passes

Search period start: 30 May 2016 00:00
Search period end: 09 June 2016 00:00
Orbit: 542 x 562 km, 82.5° (Epoch: 28 May)

Date Brightness Start Highest point End Pass type
(mag) Time Alt. Az. Time Alt. Az. Time Alt. Az.
30 May 4.4 22:17:15 10° NE 22:19:04 13° ENE 22:20:32 11° E visible
30 May 3.0 23:51:59 10° NNW 23:55:47 45° W 23:56:18 42° WSW visible
31 May 4.4 22:13:17 10° NE 22:15:27 14° ENE 22:17:07 11° E visible
31 May 3.2 23:48:22 10° NNW 23:52:07 40° W 23:52:54 36° WSW visible
01 Jun 4.2 22:09:22 10° NNE 22:11:50 16° ENE 22:13:44 12° ESE visible
01 Jun 3.5 23:44:47 10° NNW 23:48:27 36° W 23:49:30 30° SW visible
02 Jun 4.1 22:05:31 10° NNE 22:08:13 17° ENE 22:10:21 12° ESE visible
02 Jun 3.7 23:41:12 10° NNW 23:44:46 32° W 23:46:08 25° SW visible
03 Jun 4.0 22:01:42 10° NNE 22:04:36 19° ENE 22:07:00 12° ESE visible
03 Jun 3.9 23:37:38 10° NNW 23:41:06 29° W 23:42:47 21° SW visible
04 Jun 3.8 21:57:53 10° NNE 22:00:59 21° ENE 22:03:40 12° ESE visible
04 Jun 4.1 23:34:04 10° NNW 23:37:24 26° W 23:39:27 17° SW visible
05 Jun 3.7 21:54:06 10° NNE 21:57:21 23° ENE 22:00:21 11° SE visible
05 Jun 4.3 23:30:31 10° NW 23:33:43 23° W 23:36:08 14° SW visible
06 Jun 3.5 21:50:20 10° NNE 21:53:43 26° ENE 21:57:04 10° SE visible
06 Jun 4.5 23:27:00 10° NW 23:30:01 21° W 23:32:51 11° SW visible
07 Jun 3.4 21:46:35 10° NNE 21:50:05 29° ENE 21:53:35 10° SE visible
07 Jun 4.7 23:23:30 10° NW 23:26:20 19° W 23:29:10 10° SW visible
08 Jun 3.2 21:42:50 10° NNE 21:46:27 32° ENE 21:50:03 10° SE visible
08 Jun 4.8 23:20:01 10° NW 23:22:38 17° W 23:25:15 10° SW visible
